Time,TemperatureF,DewpointF,PressureIn,WindDirection,WindDirectionDegrees,WindSpeedMPH,WindSpeedGustMPH,Humidity,HourlyPrecipIn,Conditions,Clouds,dailyrainin,SoftwareType,DateUTC
2013-09-11 00:01:00,68.8,24.9,30.07,WSW,253,0.0,2.0,19,0.00,,,0.00,VWS V14.01,2013-09-11 04:01:00,
2013-09-11 00:02:00,68.8,24.9,30.07,WSW,253,0.0,2.0,19,0.00,,,0.00,VWS V14.01,2013-09-11 04:02:00,
2013-09-11 00:07:00,69.0,25.1,30.07,WSW,244,2.0,4.0,19,0.00,,,0.00,VWS V14.01,2013-09-11 04:07:00,
2013-09-11 00:12:00,68.2,24.4,30.07,SW,231,1.0,1.0,19,0.00,,,0.00,VWS V14.01,2013-09-11 04:12:00,
2013-09-11 00:17:00,67.9,25.4,30.07,SW,231,0.0,1.0,20,0.00,,,0.00,VWS V14.01,2013-09-11 04:17:00,
2013-09-11 00:22:00,67.5,25.0,30.07,SW,231,0.0,1.0,20,0.00,,,0.00,VWS V14.01,2013-09-11 04:22:00,
2013-09-11 00:27:00,67.3,24.9,30.07,SW,231,0.0,1.0,20,0.00,,,0.00,VWS V14.01,2013-09-11 04:27:00,
2013-09-11 00:32:00,67.0,24.6,30.07,SW,231,0.0,0.0,20,0.00,,,0.00,VWS V14.01,2013-09-11 04:32:00,
2013-09-11 00:37:00,67.0,24.6,30.07,SW,231,0.0,0.0,20,0.00,,,0.00,VWS V14.01,2013-09-11 04:37:00,
2013-09-11 00:42:00,67.1,23.5,30.07,SW,231,0.0,0.0,19,0.00,,,0.00,VWS V14.01,2013-09-11 04:42:00,
2013-09-11 00:47:00,67.3,23.7,30.07,SW,230,0.0,0.0,19,0.00,,,0.00,VWS V14.01,2013-09-11 04:47:00,
2013-09-11 00:52:00,67.1,23.5,30.07,SW,231,0.0,2.0,19,0.00,,,0.00,VWS V14.01,2013-09-11 04:52:00,
2013-09-11 00:57:00,67.3,23.7,30.07,SW,230,0.0,2.0,19,0.00,,,0.00,VWS V14.01,2013-09-11 04:57:00,
2013-09-11 01:02:00,66.7,24.4,30.07,West,275,0.0,1.0,20,0.00,,,0.00,VWS V14.01,2013-09-11 05:02:00,
2013-09-11 01:07:00,66.9,23.3,30.07,WSW,253,0.0,1.0,19,0.00,,,0.00,VWS V14.01,2013-09-11 05:07:00,
2013-09-11 01:12:00,67.1,23.5,30.07,SW,215,0.0,1.0,19,0.00,,,0.00,VWS V14.01,2013-09-11 05:12:00,
2013-09-11 01:17:00,67.1,23.5,30.07,SSW,207,0.0,3.0,19,0.00,,,0.00,VWS V14.01,2013-09-11 05:17:00,
2013-09-11 01:22:00,66.9,23.3,30.07,West,268,0.0,1.0,19,0.00,,,0.00,VWS V14.01,2013-09-11 05:22:00,
2013-09-11 01:27:00,66.6,24.3,30.07,West,268,0.0,2.0,20,0.00,,,0.00,VWS V14.01,2013-09-11 05:27:00,
2013-09-11 01:32:00,66.9,23.3,30.07,West,268,0.0,1.0,19,0.00,,CLR,0.00,VWS V14.01,2013-09-11 05:32:00,
2013-09-11 01:37:00,67.0,23.4,30.07,SW,215,0.0,1.0,19,0.00,,CLR,0.00,VWS V14.01,2013-09-11 05:37:00,
2013-09-11 01:42:00,67.3,23.7,30.07,SW,214,0.0,3.0,19,0.00,,CLR,0.00,VWS V14.01,2013-09-11 05:42:00,
2013-09-11 01:47:00,67.6,23.9,30.07,WSW,253,0.0,3.0,19,0.00,,CLR,0.00,VWS V14.01,2013-09-11 05:47:00,
2013-09-11 01:52:00,67.6,23.9,30.06,WSW,252,0.0,3.0,19,0.00,,CLR,0.00,VWS V14.01,2013-09-11 05:52:00,
2013-09-11 01:57:00,67.7,24.0,30.06,WSW,252,1.0,3.0,19,0.00,,CLR,0.00,VWS V14.01,2013-09-11 05:57:00,
2013-09-11 02:02:00,67.7,24.0,30.06,SW,225,1.0,1.0,19,0.00,,CLR,0.00,VWS V14.01,2013-09-11 06:02:00,
2013-09-11 02:07:00,67.7,24.0,30.05,SW,225,0.0,2.0,19,0.00,,CLR,0.00,VWS V14.01,2013-09-11 06:07:00,
2013-09-11 02:12:00,67.7,24.0,30.05,SW,225,0.0,2.0,19,0.00,,CLR,0.00,VWS V14.01,2013-09-11 06:12:00,
2013-09-11 02:17:00,67.4,25.0,30.05,SW,225,0.0,2.0,20,0.00,,CLR,0.00,VWS V14.01,2013-09-11 06:17:00,
2013-09-11 02:22:00,67.3,24.9,30.05,SW,225,0.0,1.0,20,0.00,,CLR,0.00,VWS V14.01,2013-09-11 06:22:00,
2013-09-11 02:27:00,66.9,24.5,30.05,SW,225,0.0,1.0,20,0.00,,CLR,0.00,VWS V14.01,2013-09-11 06:27:00,
2013-09-11 02:32:00,66.7,24.4,30.05,SW,225,0.0,0.0,20,0.00,,CLR,0.00,VWS V14.01,2013-09-11 06:32:00,
2013-09-11 02:37:00,67.3,24.9,30.05,SW,225,1.0,2.0,20,0.00,,CLR,0.00,VWS V14.01,2013-09-11 06:37:00,
2013-09-11 02:42:00,67.5,25.0,30.05,SW,225,1.0,2.0,20,0.00,,CLR,0.00,VWS V14.01,2013-09-11 06:42:00,
2013-09-11 02:47:00,67.2,24.8,30.05,SW,225,0.0,2.0,20,0.00,,CLR,0.00,VWS V14.01,2013-09-11 06:47:00,
2013-09-11 02:52:00,67.1,24.7,30.05,SW,225,0.0,1.0,20,0.00,,CLR,0.00,VWS V14.01,2013-09-11 06:52:00,
2013-09-11 02:57:00,67.2,24.8,30.05,SW,225,1.0,1.0,20,0.00,,CLR,0.00,VWS V14.01,2013-09-11 06:57:00,
2013-09-11 03:02:00,67.1,24.7,30.05,West,277,0.0,1.0,20,0.00,,CLR,0.00,VWS V14.01,2013-09-11 07:02:00,
2013-09-11 03:07:00,66.8,24.5,30.05,West,277,0.0,1.0,20,0.00,,CLR,0.00,VWS V14.01,2013-09-11 07:07:00,
2013-09-11 03:12:00,66.4,25.3,30.05,West,277,0.0,1.0,21,0.00,,CLR,0.00,VWS V14.01,2013-09-11 07:12:00,
2013-09-11 03:17:00,66.7,24.4,30.05,West,276,1.0,1.0,20,0.00,,CLR,0.00,VWS V14.01,2013-09-11 07:17:00,
2013-09-11 03:22:00,67.0,24.6,30.04,West,277,1.0,2.0,20,0.00,,CLR,0.00,VWS V14.01,2013-09-11 07:22:00,
2013-09-11 03:27:00,66.9,24.5,30.04,West,277,0.0,2.0,20,0.00,,CLR,0.00,VWS V14.01,2013-09-11 07:27:00,
2013-09-11 03:32:00,66.5,25.4,30.04,West,276,0.0,1.0,21,0.00,,,0.00,VWS V14.01,2013-09-11 07:32:00,
2013-09-11 03:37:00,66.7,25.6,30.04,West,277,0.0,1.0,21,0.00,,,0.00,VWS V14.01,2013-09-11 07:37:00,
2013-09-11 03:42:00,66.9,25.7,30.04,West,277,0.0,0.0,21,0.00,,,0.00,VWS V14.01,2013-09-11 07:42:00,
2013-09-11 03:47:00,66.8,25.6,30.04,West,276,1.0,2.0,21,0.00,,,0.00,VWS V14.01,2013-09-11 07:47:00,
2013-09-11 03:52:00,66.9,25.7,30.03,West,277,0.0,2.0,21,0.00,,,0.00,VWS V14.01,2013-09-11 07:52:00,
2013-09-11 03:57:00,66.6,25.5,30.03,West,277,2.0,3.0,21,0.00,,,0.00,VWS V14.01,2013-09-11 07:57:00,
2013-09-11 04:02:00,66.3,25.2,30.03,West,276,0.0,3.0,21,0.00,,,0.00,VWS V14.01,2013-09-11 08:02:00,
2013-09-11 04:07:00,66.1,25.1,30.04,West,277,0.0,3.0,21,0.00,,,0.00,VWS V14.01,2013-09-11 08:07:00,
2013-09-11 04:13:00,66.2,25.1,30.04,West,276,0.0,1.0,21,0.00,,,0.00,VWS V14.01,2013-09-11 08:13:00,
2013-09-11 04:18:00,66.6,25.5,30.04,West,277,0.0,2.0,21,0.00,,,0.00,VWS V14.01,2013-09-11 08:18:00,
2013-09-11 04:23:00,66.9,25.7,30.04,West,277,0.0,2.0,21,0.00,,,0.00,VWS V14.01,2013-09-11 08:23:00,
2013-09-11 04:28:00,66.8,25.6,30.04,West,276,1.0,2.0,21,0.00,,,0.00,VWS V14.01,2013-09-11 08:28:00,
2013-09-11 04:33:00,66.6,25.5,30.04,West,277,0.0,2.0,21,0.00,,,0.00,VWS V14.01,2013-09-11 08:33:00,
2013-09-11 04:38:00,66.2,26.3,30.05,West,277,0.0,3.0,22,0.00,,,0.00,VWS V14.01,2013-09-11 08:38:00,
2013-09-11 04:43:00,66.0,26.1,30.05,West,277,0.0,2.0,22,0.00,,,0.00,VWS V14.01,2013-09-11 08:43:00,
2013-09-11 04:48:00,65.0,25.3,30.05,West,277,0.0,2.0,22,0.00,,,0.00,VWS V14.01,2013-09-11 08:48:00,
2013-09-11 04:53:00,65.0,25.3,30.05,West,276,0.0,1.0,22,0.01,,,0.01,VWS V14.01,2013-09-11 08:53:00,
2013-09-11 04:58:00,65.5,25.7,30.05,West,277,0.0,1.0,22,0.01,,,0.01,VWS V14.01,2013-09-11 08:58:00,
2013-09-11 05:03:00,65.5,25.7,30.05,West,276,0.0,2.0,22,0.01,,,0.01,VWS V14.01,2013-09-11 09:03:00,
2013-09-11 05:08:00,65.7,25.8,30.05,West,277,0.0,2.0,22,0.01,,,0.01,VWS V14.01,2013-09-11 09:08:00,
2013-09-11 05:13:00,66.1,26.2,30.05,SW,229,2.0,4.0,22,0.01,,,0.01,VWS V14.01,2013-09-11 09:13:00,
2013-09-11 05:18:00,66.3,26.4,30.05,SW,230,0.0,4.0,22,0.01,,,0.01,VWS V14.01,2013-09-11 09:18:00,
2013-09-11 05:23:00,66.2,26.3,30.05,SW,230,0.0,4.0,22,0.01,,,0.01,VWS V14.01,2013-09-11 09:23:00,
2013-09-11 05:28:00,65.9,26.0,30.05,SW,230,0.0,4.0,22,0.01,,,0.01,VWS V14.01,2013-09-11 09:28:00,
2013-09-11 05:33:00,65.1,26.4,30.05,SW,230,0.0,2.0,23,0.01,,,0.01,VWS V14.01,2013-09-11 09:33:00,
2013-09-11 05:38:00,64.8,26.2,30.05,SW,230,0.0,2.0,23,0.01,,,0.01,VWS V14.01,2013-09-11 09:38:00,
2013-09-11 05:43:00,64.8,26.2,30.05,SW,230,0.0,0.0,23,0.01,,,0.01,VWS V14.01,2013-09-11 09:43:00,
2013-09-11 05:48:00,65.2,26.5,30.05,SW,230,0.0,1.0,23,0.01,,,0.01,VWS V14.01,2013-09-11 09:48:00,
2013-09-11 05:53:00,65.1,26.4,30.05,SW,230,0.0,1.0,23,0.01,,,0.01,VWS V14.01,2013-09-11 09:53:00,
2013-09-11 05:58:00,65.4,26.7,30.05,SW,230,0.0,1.0,23,0.01,,,0.01,VWS V14.01,2013-09-11 09:58:00,
2013-09-11 06:03:00,65.6,26.8,30.05,SW,230,0.0,2.0,23,0.00,,,0.01,VWS V14.01,2013-09-11 10:03:00,
2013-09-11 06:08:00,65.5,26.8,30.06,SW,230,0.0,2.0,23,0.00,,,0.01,VWS V14.01,2013-09-11 10:08:00,
2013-09-11 06:13:00,65.2,26.5,30.06,SW,230,0.0,1.0,23,0.00,,,0.01,VWS V14.01,2013-09-11 10:13:00,
2013-09-11 06:18:00,65.2,26.5,30.06,SW,230,0.0,1.0,23,0.00,,,0.01,VWS V14.01,2013-09-11 10:18:00,
2013-09-11 06:23:00,65.2,26.5,30.03,SW,230,0.0,1.0,23,0.00,,,0.01,VWS V14.01,2013-09-11 10:23:00,
2013-09-11 06:28:00,65.2,27.5,30.03,SW,230,0.0,1.0,24,0.00,,,0.01,VWS V14.01,2013-09-11 10:28:00,
2013-09-11 06:33:00,65.2,27.5,30.03,SW,230,0.0,1.0,24,0.00,,,0.01,VWS V14.01,2013-09-11 10:33:00,
2013-09-11 06:38:00,65.2,27.5,30.04,SW,230,0.0,2.0,24,0.00,,,0.01,VWS V14.01,2013-09-11 10:38:00,
2013-09-11 06:43:00,65.2,27.5,30.04,SW,230,0.0,1.0,24,0.00,,,0.01,VWS V14.01,2013-09-11 10:43:00,
2013-09-11 06:48:00,65.2,27.5,30.04,SW,230,1.0,3.0,24,0.00,,,0.01,VWS V14.01,2013-09-11 10:48:00,
2013-09-11 06:53:00,65.2,27.5,30.04,SW,230,0.0,3.0,24,0.00,,,0.01,VWS V14.01,2013-09-11 10:53:00,
2013-09-11 06:58:00,65.2,27.5,30.04,SW,230,0.0,3.0,24,0.00,,,0.01,VWS V14.01,2013-09-11 10:58:00,
2013-09-11 07:03:00,65.2,27.5,30.04,NNW,336,2.0,2.0,24,0.00,,,0.01,VWS V14.01,2013-09-11 11:03:00,
2013-09-11 07:08:00,65.2,27.5,30.04,NNW,336,0.0,2.0,24,0.00,,,0.01,VWS V14.01,2013-09-11 11:08:00,
2013-09-11 07:13:00,65.2,27.5,30.04,NNW,336,0.0,2.0,24,0.00,,,0.01,VWS V14.01,2013-09-11 11:13:00,
2013-09-11 07:18:00,65.2,27.5,30.04,SW,236,0.0,2.0,24,0.00,,,0.01,VWS V14.01,2013-09-11 11:18:00,
2013-09-11 07:23:00,65.2,27.5,30.06,WSW,238,0.0,3.0,24,0.00,,,0.01,VWS V14.01,2013-09-11 11:23:00,
2013-09-11 07:28:00,65.2,27.5,30.06,WSW,238,0.0,3.0,24,0.00,,,0.01,VWS V14.01,2013-09-11 11:28:00,
2013-09-11 07:33:00,65.2,27.5,30.06,West,276,0.0,4.0,24,0.00,,,0.01,VWS V14.01,2013-09-11 11:33:00,
2013-09-11 07:38:00,65.2,27.5,30.06,West,276,1.0,4.0,24,0.00,,,0.01,VWS V14.01,2013-09-11 11:38:00,
2013-09-11 07:43:00,65.2,27.5,30.06,West,259,0.0,3.0,24,0.00,,,0.01,VWS V14.01,2013-09-11 11:43:00,
2013-09-11 07:48:00,65.2,27.5,30.06,West,259,3.0,4.0,24,0.00,,,0.01,VWS V14.01,2013-09-11 11:48:00,
2013-09-11 07:53:00,65.2,27.5,30.06,West,259,1.0,3.0,24,0.00,,,0.01,VWS V14.01,2013-09-11 11:53:00,
2013-09-11 07:58:00,65.2,27.5,30.06,West,259,0.0,3.0,24,0.00,,,0.01,VWS V14.01,2013-09-11 11:58:00,
2013-09-11 08:03:00,65.2,27.5,30.06,West,259,0.0,0.0,24,0.00,,,0.01,VWS V14.01,2013-09-11 12:03:00,
2013-09-11 08:08:00,65.2,27.5,30.06,West,259,1.0,3.0,24,0.00,,,0.01,VWS V14.01,2013-09-11 12:08:00,
2013-09-11 08:13:00,65.2,27.5,30.06,West,259,3.0,3.0,24,0.00,,,0.01,VWS V14.01,2013-09-11 12:13:00,
2013-09-11 08:18:00,65.2,27.5,30.06,West,259,0.0,3.0,24,0.00,,,0.01,VWS V14.01,2013-09-11 12:18:00,
2013-09-11 08:23:00,65.2,27.5,30.07,West,259,2.0,4.0,24,0.00,,,0.01,VWS V14.01,2013-09-11 12:23:00,
2013-09-11 08:28:00,65.2,27.5,30.07,SW,221,1.0,5.0,24,0.00,,,0.01,VWS V14.01,2013-09-11 12:28:00,
2013-09-11 08:33:00,65.2,27.5,30.07,West,270,2.0,4.0,24,0.00,,,0.01,VWS V14.01,2013-09-11 12:33:00,
2013-09-11 08:38:00,65.2,27.5,30.07,SW,226,0.0,9.0,24,0.00,,,0.01,VWS V14.01,2013-09-11 12:38:00,
2013-09-11 08:43:00,65.2,27.5,30.07,SW,227,1.0,4.0,24,0.00,,,0.01,VWS V14.01,2013-09-11 12:43:00,
2013-09-11 08:48:00,65.2,27.5,30.07,West,261,2.0,2.0,24,0.00,,,0.01,VWS V14.01,2013-09-11 12:48:00,
2013-09-11 08:53:00,65.2,27.5,30.07,SW,223,4.0,5.0,24,0.00,,,0.01,VWS V14.01,2013-09-11 12:53:00,
2013-09-11 08:58:00,65.2,27.5,30.07,WSW,239,2.0,3.0,24,0.00,,,0.01,VWS V14.01,2013-09-11 12:58:00,
2013-09-11 09:03:00,65.2,27.5,30.07,WSW,239,2.0,3.0,24,0.00,,,0.01,VWS V14.01,2013-09-11 13:03:00,
2013-09-11 09:08:00,65.2,27.5,30.07,WSW,239,0.0,1.0,24,0.00,,,0.01,VWS V14.01,2013-09-11 13:08:00,
2013-09-11 09:13:00,65.2,27.5,30.07,WSW,257,0.0,3.0,24,0.00,,,0.01,VWS V14.01,2013-09-11 13:13:00,
2013-09-11 09:18:00,65.2,27.5,30.07,WSW,257,1.0,2.0,24,0.00,,,0.01,VWS V14.01,2013-09-11 13:18:00,
2013-09-11 09:23:00,65.2,27.5,30.08,WSW,257,0.0,2.0,24,0.00,,,0.01,VWS V14.01,2013-09-11 13:23:00,
2013-09-11 09:28:00,65.2,27.5,30.08,SW,217,2.0,2.0,24,0.00,,,0.01,VWS V14.01,2013-09-11 13:28:00,
2013-09-11 09:33:00,65.2,27.5,30.08,SW,224,0.0,3.0,24,0.00,,,0.01,VWS V14.01,2013-09-11 13:33:00,
2013-09-11 09:38:00,65.2,27.5,30.08,SSW,213,2.0,2.0,24,0.00,,,0.01,VWS V14.01,2013-09-11 13:38:00,
2013-09-11 09:43:00,65.2,27.5,30.08,SSW,211,1.0,2.0,24,0.00,,,0.01,VWS V14.01,2013-09-11 13:43:00,
2013-09-11 09:48:00,65.2,27.5,30.08,WSW,246,0.0,0.0,24,0.00,,,0.01,VWS V14.01,2013-09-11 13:48:00,
2013-09-11 09:54:00,65.2,27.5,30.08,SW,234,1.0,5.0,24,0.00,,,0.01,VWS V14.01,2013-09-11 13:54:00,
2013-09-11 09:59:00,65.2,27.5,30.08,SW,216,1.0,1.0,24,0.00,,,0.01,VWS V14.01,2013-09-11 13:59:00,
2013-09-11 10:04:00,65.2,27.5,30.08,WSW,250,2.0,4.0,24,0.00,,,0.01,VWS V14.01,2013-09-11 14:04:00,
2013-09-11 10:09:00,65.2,27.5,30.07,SW,226,2.0,3.0,24,0.00,,,0.01,VWS V14.01,2013-09-11 14:09:00,
2013-09-11 10:14:00,65.2,27.5,30.07,WSW,250,1.0,6.0,24,0.00,,,0.01,VWS V14.01,2013-09-11 14:14:00,
2013-09-11 10:19:00,65.2,27.5,30.07,WSW,250,0.0,0.0,24,0.00,,,0.01,VWS V14.01,2013-09-11 14:19:00,
2013-09-11 10:24:00,65.2,27.5,30.08,SW,231,0.0,1.0,24,0.00,,,0.01,VWS V14.01,2013-09-11 14:24:00,
2013-09-11 10:29:00,65.2,27.5,30.08,WSW,253,3.0,3.0,24,0.00,,,0.01,VWS V14.01,2013-09-11 14:29:00,
2013-09-11 10:34:00,65.2,27.5,30.08,SSW,193,3.0,4.0,24,0.00,,,0.01,VWS V14.01,2013-09-11 14:34:00,
2013-09-11 10:39:00,65.2,27.5,30.08,SSW,193,0.0,2.0,24,0.00,,,0.01,VWS V14.01,2013-09-11 14:39:00,
2013-09-11 10:44:00,65.2,27.5,30.08,South,173,3.0,4.0,24,0.00,,,0.01,VWS V14.01,2013-09-11 14:44:00,
2013-09-11 10:49:00,65.2,27.5,30.08,WSW,254,5.0,5.0,24,0.00,,,0.01,VWS V14.01,2013-09-11 14:49:00,
2013-09-11 10:54:00,65.2,27.5,30.08,SW,219,4.0,5.0,24,0.00,,,0.01,VWS V14.01,2013-09-11 14:54:00,
2013-09-11 10:59:00,65.2,27.5,30.08,West,275,4.0,6.0,24,0.00,,,0.01,VWS V14.01,2013-09-11 14:59:00,
2013-09-11 11:04:00,65.2,27.5,30.08,West,274,4.0,12.0,24,0.00,,,0.01,VWS V14.01,2013-09-11 15:04:00,
2013-09-11 11:09:00,65.2,27.5,30.08,West,273,5.0,10.0,24,0.00,,,0.01,VWS V14.01,2013-09-11 15:09:00,
2013-09-11 11:14:00,65.2,27.5,30.08,West,275,2.0,10.0,24,0.00,,,0.01,VWS V14.01,2013-09-11 15:14:00,
2013-09-11 11:19:00,65.2,27.5,30.08,WSW,242,6.0,6.0,24,0.00,,,0.01,VWS V14.01,2013-09-11 15:19:00,
2013-09-11 11:24:00,65.2,27.5,30.08,WSW,246,5.0,10.0,24,0.00,,,0.01,VWS V14.01,2013-09-11 15:24:00,
2013-09-11 11:29:00,65.2,27.5,30.08,West,279,0.0,4.0,24,0.00,,,0.01,VWS V14.01,2013-09-11 15:29:00,
2013-09-11 11:34:00,65.2,27.5,30.08,WSW,252,3.0,6.0,24,0.00,,BKN060,0.01,VWS V14.01,2013-09-11 15:34:00,
2013-09-11 11:39:00,65.2,27.5,30.07,West,277,4.0,6.0,24,0.00,,BKN060,0.01,VWS V14.01,2013-09-11 15:39:00,
2013-09-11 11:44:00,65.2,27.5,30.07,West,269,9.0,9.0,24,0.00,,BKN060,0.01,VWS V14.01,2013-09-11 15:44:00,
2013-09-11 11:49:00,65.2,27.5,30.07,West,267,4.0,7.0,24,0.00,,BKN060,0.01,VWS V14.01,2013-09-11 15:49:00,
2013-09-11 11:54:00,65.2,27.5,30.06,West,269,7.0,12.0,24,0.00,,BKN060,0.01,VWS V14.01,2013-09-11 15:54:00,
2013-09-11 11:59:00,65.2,27.5,30.06,West,268,7.0,10.0,24,0.00,,BKN060,0.01,VWS V14.01,2013-09-11 15:59:00,
2013-09-11 12:04:00,65.2,27.5,30.06,SW,224,10.0,13.0,24,0.00,,BKN060,0.01,VWS V14.01,2013-09-11 16:04:00,
2013-09-11 12:09:00,65.2,27.5,30.06,West,262,11.0,11.0,24,0.00,,BKN060,0.01,VWS V14.01,2013-09-11 16:09:00,
2013-09-11 12:14:00,65.2,27.5,30.06,West,264,11.0,11.0,24,0.00,,BKN060,0.01,VWS V14.01,2013-09-11 16:14:00,
2013-09-11 12:19:00,65.2,27.5,30.06,NW,305,9.0,11.0,24,0.00,,BKN060,0.01,VWS V14.01,2013-09-11 16:19:00,
2013-09-11 12:24:00,65.2,27.5,30.07,SW,229,5.0,12.0,24,0.00,,BKN060,0.01,VWS V14.01,2013-09-11 16:24:00,
2013-09-11 12:29:00,65.2,27.5,30.07,WNW,296,5.0,11.0,24,0.00,,BKN060,0.01,VWS V14.01,2013-09-11 16:29:00,
2013-09-11 12:34:00,65.2,27.5,30.07,West,259,3.0,16.0,24,0.00,,FEW018,0.01,VWS V14.01,2013-09-11 16:34:00,
2013-09-11 12:39:00,65.2,27.5,30.06,WNW,290,12.0,13.0,24,0.00,,FEW018,0.01,VWS V14.01,2013-09-11 16:39:00,
2013-09-11 12:44:00,65.2,27.5,30.06,West,269,6.0,13.0,24,0.00,,FEW018,0.01,VWS V14.01,2013-09-11 16:44:00,
2013-09-11 12:49:00,65.2,27.5,30.06,West,275,5.0,9.0,24,0.00,,FEW018,0.01,VWS V14.01,2013-09-11 16:49:00,
2013-09-11 12:54:00,65.2,27.5,30.05,WNW,284,7.0,9.0,24,0.00,,FEW018,0.01,VWS V14.01,2013-09-11 16:54:00,
2013-09-11 12:59:00,65.2,27.5,30.05,West,276,3.0,7.0,24,0.00,,FEW018,0.01,VWS V14.01,2013-09-11 16:59:00,
2013-09-11 13:04:00,65.2,27.5,30.05,West,275,4.0,11.0,24,0.00,,BKN023,0.01,VWS V14.01,2013-09-11 17:04:00,
2013-09-11 13:09:00,65.2,27.5,30.05,SW,236,2.0,5.0,24,0.00,,BKN023,0.01,VWS V14.01,2013-09-11 17:09:00,
2013-09-11 13:14:00,65.2,27.5,30.05,West,262,4.0,7.0,24,0.00,,BKN023,0.01,VWS V14.01,2013-09-11 17:14:00,
2013-09-11 13:19:00,65.2,27.5,30.05,West,270,1.0,1.0,24,0.00,,BKN023,0.01,VWS V14.01,2013-09-11 17:19:00,
2013-09-11 13:24:00,65.2,27.5,30.03,SE,142,0.0,3.0,24,0.00,,BKN023,0.01,VWS V14.01,2013-09-11 17:24:00,
2013-09-11 13:29:00,65.2,27.5,30.03,SSW,194,3.0,4.0,24,0.00,,BKN023,0.01,VWS V14.01,2013-09-11 17:29:00,
2013-09-11 13:34:00,65.2,27.5,30.03,South,170,2.0,8.0,24,0.00,,BKN120,0.01,VWS V14.01,2013-09-11 17:34:00,
2013-09-11 13:39:00,65.2,27.5,30.03,SSW,205,4.0,7.0,24,0.00,,BKN120,0.01,VWS V14.01,2013-09-11 17:39:00,
2013-09-11 13:44:00,65.2,27.5,30.03,WSW,242,1.0,9.0,24,0.00,,BKN120,0.01,VWS V14.01,2013-09-11 17:44:00,
2013-09-11 13:49:00,65.2,27.5,30.03,South,175,0.0,1.0,24,0.00,,BKN120,0.01,VWS V14.01,2013-09-11 17:49:00,
2013-09-11 13:54:00,65.2,27.5,30.02,SW,219,4.0,6.0,24,0.00,,BKN120,0.01,VWS V14.01,2013-09-11 17:54:00,
2013-09-11 13:59:00,65.2,27.5,30.02,SW,216,4.0,5.0,24,0.00,,BKN120,0.01,VWS V14.01,2013-09-11 17:59:00,
2013-09-11 14:04:00,65.2,0.0,30.02,West,279,11.0,12.0,0,0.00,,BKN120,0.01,VWS V14.01,2013-09-11 18:04:00,
2013-09-11 14:09:00,65.2,0.0,30.02,West,275,7.0,7.0,0,0.00,,BKN120,0.01,VWS V14.01,2013-09-11 18:09:00,
2013-09-11 14:14:00,65.2,0.0,30.02,West,279,5.0,11.0,0,0.00,,BKN120,0.01,VWS V14.01,2013-09-11 18:14:00,
2013-09-11 14:19:00,65.2,0.0,30.02,West,265,1.0,5.0,0,0.00,,BKN120,0.01,VWS V14.01,2013-09-11 18:19:00,
2013-09-11 14:24:00,65.2,0.0,30.02,West,267,4.0,5.0,0,0.00,,BKN120,0.01,VWS V14.01,2013-09-11 18:24:00,
2013-09-11 14:29:00,65.2,0.0,30.02,WSW,246,4.0,7.0,0,0.00,,BKN120,0.01,VWS V14.01,2013-09-11 18:29:00,
2013-09-11 14:34:00,65.2,54.8,30.02,WSW,252,5.0,7.0,69,0.00,,CLR,0.01,VWS V14.01,2013-09-11 18:34:00,
2013-09-11 14:39:00,65.2,54.4,30.02,West,262,3.0,5.0,68,0.00,,CLR,0.01,VWS V14.01,2013-09-11 18:39:00,
2013-09-11 14:44:00,65.2,54.4,30.02,West,275,4.0,6.0,68,0.00,,CLR,0.01,VWS V14.01,2013-09-11 18:44:00,
2013-09-11 14:49:00,65.2,54.8,30.02,WSW,250,3.0,6.0,69,0.00,,CLR,0.01,VWS V14.01,2013-09-11 18:49:00,
2013-09-11 14:54:00,65.2,54.8,30.01,SSW,205,0.0,6.0,69,0.00,,CLR,0.01,VWS V14.01,2013-09-11 18:54:00,
2013-09-11 14:59:00,65.2,54.8,30.01,SW,218,3.0,7.0,69,0.00,,CLR,0.01,VWS V14.01,2013-09-11 18:59:00,
2013-09-11 15:04:00,65.2,54.8,30.01,SW,232,0.0,10.0,69,0.00,,CLR,0.01,VWS V14.01,2013-09-11 19:04:00,
2013-09-11 15:09:00,65.2,54.8,29.99,WSW,248,1.0,6.0,69,0.00,,CLR,0.01,VWS V14.01,2013-09-11 19:09:00,
2013-09-11 15:14:00,80.8,70.5,29.99,WSW,245,3.0,9.0,71,0.00,,CLR,0.01,VWS V14.01,2013-09-11 19:14:00,
2013-09-11 15:19:00,80.4,70.1,29.99,WSW,240,5.0,5.0,71,0.00,,CLR,0.01,VWS V14.01,2013-09-11 19:19:00,
2013-09-11 15:25:00,80.1,69.9,29.95,WSW,251,4.0,7.0,71,0.00,,CLR,0.01,VWS V14.01,2013-09-11 19:25:00,
2013-09-11 15:30:00,79.8,69.6,29.95,West,277,5.0,5.0,71,0.00,,CLR,0.01,VWS V14.01,2013-09-11 19:30:00,
2013-09-11 15:35:00,79.4,69.2,29.95,WNW,287,6.0,7.0,71,0.00,,SCT065,0.01,VWS V14.01,2013-09-11 19:35:00,
2013-09-11 15:40:00,79.2,68.6,29.95,WNW,296,7.0,10.0,70,0.00,,SCT065,0.01,VWS V14.01,2013-09-11 19:40:00,
2013-09-11 15:45:00,79.0,68.4,29.95,WSW,250,6.0,10.0,70,0.00,,SCT065,0.01,VWS V14.01,2013-09-11 19:45:00,
2013-09-11 15:50:00,78.8,67.8,29.95,WNW,302,2.0,9.0,69,0.00,,SCT065,0.01,VWS V14.01,2013-09-11 19:50:00,
2013-09-11 15:55:00,78.7,67.3,29.96,West,275,5.0,9.0,68,0.00,,SCT065,0.01,VWS V14.01,2013-09-11 19:55:00,
2013-09-11 16:00:00,78.4,66.1,29.96,WNW,283,2.0,10.0,66,0.00,,SCT065,0.01,VWS V14.01,2013-09-11 20:00:00,
2013-09-11 16:05:00,78.1,65.8,29.96,WNW,287,4.0,11.0,66,0.00,,SCT065,0.01,VWS V14.01,2013-09-11 20:05:00,
2013-09-11 16:10:00,78.0,64.8,29.97,WNW,293,6.0,7.0,64,0.00,,SCT065,0.01,VWS V14.01,2013-09-11 20:10:00,
2013-09-11 16:15:00,77.6,64.0,29.97,West,281,3.0,13.0,63,0.00,,SCT065,0.01,VWS V14.01,2013-09-11 20:15:00,
2013-09-11 16:20:00,77.3,63.3,29.97,WNW,286,6.0,11.0,62,0.00,,SCT065,0.01,VWS V14.01,2013-09-11 20:20:00,
2013-09-11 16:25:00,77.0,62.5,29.98,NW,319,7.0,14.0,61,0.00,,SCT065,0.01,VWS V14.01,2013-09-11 20:25:00,
2013-09-11 16:30:00,76.4,61.0,29.98,West,277,7.0,13.0,59,0.00,,SCT065,0.01,VWS V14.01,2013-09-11 20:30:00,
2013-09-11 16:35:00,76.2,59.4,29.98,WNW,294,1.0,13.0,56,0.00,,CLR,0.01,VWS V14.01,2013-09-11 20:35:00,
2013-09-11 16:40:00,75.9,58.6,29.97,WSW,240,3.0,4.0,55,0.00,,CLR,0.01,VWS V14.01,2013-09-11 20:40:00,
2013-09-11 16:45:00,75.9,59.1,29.97,WSW,249,3.0,9.0,56,0.00,,CLR,0.01,VWS V14.01,2013-09-11 20:45:00,
2013-09-11 16:50:00,76.0,59.2,29.97,West,263,0.0,4.0,56,0.00,,CLR,0.01,VWS V14.01,2013-09-11 20:50:00,
2013-09-11 16:55:00,76.2,59.4,29.97,West,263,0.0,4.0,56,0.00,,CLR,0.01,VWS V14.01,2013-09-11 20:55:00,
2013-09-11 17:00:00,76.2,60.4,29.97,West,270,5.0,6.0,58,0.00,,CLR,0.01,VWS V14.01,2013-09-11 21:00:00,
2013-09-11 17:05:00,76.2,61.8,29.97,West,259,0.0,7.0,61,0.00,,OVC090,0.01,VWS V14.01,2013-09-11 21:05:00,
2013-09-11 17:10:00,76.3,61.9,29.99,South,169,0.0,0.0,61,0.00,,OVC090,0.01,VWS V14.01,2013-09-11 21:10:00,
2013-09-11 17:15:00,76.3,62.8,29.99,South,169,0.0,1.0,63,0.00,,OVC090,0.01,VWS V14.01,2013-09-11 21:15:00,
2013-09-11 17:20:00,76.4,62.9,29.99,West,273,0.0,1.0,63,0.00,,OVC090,0.01,VWS V14.01,2013-09-11 21:20:00,
2013-09-11 17:25:00,76.5,63.9,29.98,West,273,0.0,2.0,65,0.00,,OVC090,0.01,VWS V14.01,2013-09-11 21:25:00,
2013-09-11 17:30:00,76.7,64.1,29.98,West,273,0.0,1.0,65,0.00,,OVC090,0.01,VWS V14.01,2013-09-11 21:30:00,
2013-09-11 17:35:00,76.9,62.9,29.98,West,273,0.0,2.0,62,0.00,,BKN042,0.01,VWS V14.01,2013-09-11 21:35:00,
2013-09-11 17:40:00,76.8,63.3,29.97,SSE,159,0.0,0.0,63,0.00,,BKN042,0.01,VWS V14.01,2013-09-11 21:40:00,
2013-09-11 17:45:00,77.2,64.1,29.97,SSE,159,1.0,2.0,64,0.00,,BKN042,0.01,VWS V14.01,2013-09-11 21:45:00,
2013-09-11 17:50:00,77.5,65.3,29.97,SSE,159,1.0,2.0,66,0.00,,BKN042,0.01,VWS V14.01,2013-09-11 21:50:00,
2013-09-11 17:55:00,77.4,65.2,29.95,SSE,159,0.0,2.0,66,0.00,,BKN042,0.01,VWS V14.01,2013-09-11 21:55:00,
2013-09-11 18:00:00,77.0,64.3,29.95,SSW,196,2.0,3.0,65,0.00,,BKN042,0.01,VWS V14.01,2013-09-11 22:00:00,
2013-09-11 18:05:00,76.8,64.2,29.95,SW,227,1.0,3.0,65,0.00,,BKN075,0.01,VWS V14.01,2013-09-11 22:05:00,
2013-09-11 18:10:00,76.7,64.1,29.95,SW,216,0.0,2.0,65,0.00,,BKN075,0.01,VWS V14.01,2013-09-11 22:10:00,
2013-09-11 18:15:00,76.7,64.1,29.95,SW,215,0.0,2.0,65,0.00,,BKN075,0.01,VWS V14.01,2013-09-11 22:15:00,
2013-09-11 18:20:00,76.7,64.1,29.95,West,261,2.0,5.0,65,0.00,,BKN075,0.01,VWS V14.01,2013-09-11 22:20:00,
2013-09-11 18:25:00,76.5,64.3,29.93,SSW,209,2.0,5.0,66,0.00,,BKN075,0.01,VWS V14.01,2013-09-11 22:25:00,
2013-09-11 18:30:00,76.2,63.6,29.93,SW,227,2.0,3.0,65,0.00,,BKN075,0.01,VWS V14.01,2013-09-11 22:30:00,
2013-09-11 18:35:00,75.9,63.7,29.93,WSW,253,3.0,5.0,66,0.00,,,0.01,VWS V14.01,2013-09-11 22:35:00,
2013-09-11 18:40:00,75.6,62.6,29.93,West,270,1.0,3.0,64,0.00,,,0.01,VWS V14.01,2013-09-11 22:40:00,
2013-09-11 18:45:00,75.2,60.8,29.93,West,270,1.0,3.0,61,0.00,,,0.01,VWS V14.01,2013-09-11 22:45:00,
2013-09-11 18:50:00,74.8,60.0,29.93,West,261,0.0,2.0,60,0.00,,,0.01,VWS V14.01,2013-09-11 22:50:00,
2013-09-11 18:55:00,74.5,58.8,29.93,West,261,0.0,2.0,58,0.00,,,0.01,VWS V14.01,2013-09-11 22:55:00,
2013-09-11 19:00:00,74.2,58.0,29.93,West,261,0.0,0.0,57,0.00,,,0.01,VWS V14.01,2013-09-11 23:00:00,
2013-09-11 19:05:00,73.8,57.1,29.93,West,261,0.0,1.0,56,0.00,,,0.01,VWS V14.01,2013-09-11 23:05:00,
2013-09-11 19:10:00,73.6,56.5,29.92,West,261,0.0,1.0,55,0.00,,,0.01,VWS V14.01,2013-09-11 23:10:00,
2013-09-11 19:15:00,73.2,55.1,29.92,WNW,289,1.0,2.0,53,0.00,,,0.01,VWS V14.01,2013-09-11 23:15:00,
2013-09-11 19:20:00,72.9,53.7,29.92,West,277,0.0,2.0,51,0.00,,,0.01,VWS V14.01,2013-09-11 23:20:00,
2013-09-11 19:25:00,72.6,51.8,29.94,WSW,238,1.0,4.0,48,0.00,,,0.01,VWS V14.01,2013-09-11 23:25:00,
2013-09-11 19:30:00,72.3,50.4,29.94,WSW,243,2.0,2.0,46,0.00,,,0.01,VWS V14.01,2013-09-11 23:30:00,
2013-09-11 19:35:00,72.1,49.0,29.94,WSW,244,0.0,3.0,44,0.00,,CLR,0.01,VWS V14.01,2013-09-11 23:35:00,
2013-09-11 19:40:00,71.8,47.5,29.95,WSW,244,1.0,3.0,42,0.00,,CLR,0.01,VWS V14.01,2013-09-11 23:40:00,
2013-09-11 19:45:00,71.5,45.9,29.95,WSW,244,0.0,3.0,40,0.00,,CLR,0.01,VWS V14.01,2013-09-11 23:45:00,
2013-09-11 19:50:00,71.4,44.5,29.95,WSW,244,0.0,1.0,38,0.00,,CLR,0.01,VWS V14.01,2013-09-11 23:50:00,
2013-09-11 19:55:00,71.2,42.9,29.96,WSW,244,0.0,1.0,36,0.00,,CLR,0.01,VWS V14.01,2013-09-11 23:55:00,
2013-09-11 20:00:00,71.1,42.1,29.96,WSW,244,0.0,1.0,35,0.00,,CLR,0.01,VWS V14.01,2013-09-12 00:00:00,
2013-09-11 20:10:00,70.3,38.3,29.96,WSW,248,0.0,0.0,31,0.00,,CLR,0.01,VWS V14.01,2013-09-12 00:10:00,
2013-09-11 20:20:00,70.0,37.2,29.96,WSW,248,0.0,1.0,30,0.00,,CLR,0.01,VWS V14.01,2013-09-12 00:20:00,
2013-09-11 20:30:00,70.0,35.4,29.97,WSW,248,0.0,3.0,28,0.00,,CLR,0.01,VWS V14.01,2013-09-12 00:30:00,
2013-09-11 20:40:00,68.9,35.4,29.97,WSW,248,1.0,2.0,29,0.00,,CLR,0.01,VWS V14.01,2013-09-12 00:40:00,
2013-09-11 20:50:00,68.6,33.3,29.97,WSW,248,1.0,2.0,27,0.00,,CLR,0.01,VWS V14.01,2013-09-12 00:50:00,
2013-09-11 21:19:00,68.6,33.3,29.97,WSW,248,1.0,2.0,27,0.00,,CLR,0.01,VWS V14.01,2013-09-12 01:19:00,
2013-09-11 21:24:00,68.7,31.5,29.97,West,273,0.0,1.0,25,0.00,,CLR,0.01,VWS V14.01,2013-09-12 01:24:00,
2013-09-11 21:29:00,68.6,31.4,29.97,West,273,0.0,1.0,25,0.00,,CLR,0.01,VWS V14.01,2013-09-12 01:29:00,
2013-09-11 21:34:00,68.1,31.0,29.97,West,273,1.0,2.0,25,0.00,,CLR,0.01,VWS V14.01,2013-09-12 01:34:00,
2013-09-11 21:39:00,68.3,30.1,29.98,West,273,0.0,1.0,24,0.00,,CLR,0.01,VWS V14.01,2013-09-12 01:39:00,
2013-09-11 21:44:00,68.4,30.2,29.98,West,273,1.0,1.0,24,0.00,,CLR,0.01,VWS V14.01,2013-09-12 01:44:00,
2013-09-11 21:49:00,68.3,30.1,29.98,West,273,0.0,1.0,24,0.00,,CLR,0.01,VWS V14.01,2013-09-12 01:49:00,
2013-09-11 21:54:00,68.1,30.0,29.98,West,272,0.0,3.0,24,0.00,,CLR,0.01,VWS V14.01,2013-09-12 01:54:00,
2013-09-11 21:59:00,68.1,30.0,29.98,West,263,3.0,4.0,24,0.00,,CLR,0.01,VWS V14.01,2013-09-12 01:59:00,
2013-09-11 22:04:00,68.0,29.9,29.98,West,276,3.0,4.0,24,0.00,,CLR,0.01,VWS V14.01,2013-09-12 02:04:00,
2013-09-11 22:09:00,68.0,28.9,29.98,WSW,256,1.0,4.0,23,0.00,,CLR,0.01,VWS V14.01,2013-09-12 02:09:00,
2013-09-11 22:14:00,68.0,28.9,29.98,WNW,295,1.0,6.0,23,0.00,,CLR,0.01,VWS V14.01,2013-09-12 02:14:00,
2013-09-11 22:19:00,68.1,28.9,29.98,WNW,289,2.0,2.0,23,0.00,,CLR,0.01,VWS V14.01,2013-09-12 02:19:00,
2013-09-11 22:24:00,68.0,28.9,29.98,WSW,257,1.0,4.0,23,0.00,,CLR,0.01,VWS V14.01,2013-09-12 02:24:00,
2013-09-11 22:29:00,68.3,29.1,29.98,WSW,257,0.0,0.0,23,0.00,,CLR,0.01,VWS V14.01,2013-09-12 02:29:00,
2013-09-11 22:34:00,67.8,29.7,29.98,South,169,1.0,2.0,24,0.00,,CLR,0.01,VWS V14.01,2013-09-12 02:34:00,
2013-09-11 22:39:00,68.2,29.0,29.98,WSW,240,0.0,1.0,23,0.00,,CLR,0.01,VWS V14.01,2013-09-12 02:39:00,
2013-09-11 22:44:00,68.5,29.3,29.98,SW,236,0.0,3.0,23,0.00,,CLR,0.01,VWS V14.01,2013-09-12 02:44:00,
2013-09-11 22:49:00,68.7,30.5,29.98,SW,231,0.0,1.0,24,0.00,,CLR,0.01,VWS V14.01,2013-09-12 02:49:00,
2013-09-11 22:54:00,69.1,30.8,29.97,SW,230,0.0,2.0,24,0.00,,CLR,0.01,VWS V14.01,2013-09-12 02:54:00,
2013-09-11 22:59:00,69.1,31.8,29.97,SW,231,2.0,2.0,25,0.00,,CLR,0.01,VWS V14.01,2013-09-12 02:59:00,
2013-09-11 23:04:00,69.1,31.8,29.97,SW,223,1.0,4.0,25,0.00,,CLR,0.01,VWS V14.01,2013-09-12 03:04:00,
2013-09-11 23:09:00,68.9,32.6,29.97,SSW,198,0.0,2.0,26,0.00,,CLR,0.01,VWS V14.01,2013-09-12 03:09:00,
2013-09-11 23:14:00,68.7,33.4,29.97,WSW,237,1.0,3.0,27,0.00,,CLR,0.01,VWS V14.01,2013-09-12 03:14:00,
2013-09-11 23:19:00,68.7,33.4,29.97,WSW,238,1.0,2.0,27,0.00,,CLR,0.01,VWS V14.01,2013-09-12 03:19:00,
2013-09-11 23:24:00,68.7,33.4,29.96,WSW,238,2.0,4.0,27,0.00,,CLR,0.01,VWS V14.01,2013-09-12 03:24:00,
2013-09-11 23:29:00,68.6,33.3,29.96,WSW,240,1.0,5.0,27,0.00,,CLR,0.01,VWS V14.01,2013-09-12 03:29:00,
2013-09-11 23:34:00,68.5,34.1,29.96,West,259,3.0,6.0,28,0.00,,CLR,0.01,VWS V14.01,2013-09-12 03:34:00,
2013-09-11 23:39:00,68.4,33.1,29.95,WSW,256,3.0,4.0,27,0.00,,CLR,0.01,VWS V14.01,2013-09-12 03:39:00,
2013-09-11 23:44:00,68.5,32.3,29.95,WSW,257,0.0,4.0,26,0.00,,CLR,0.01,VWS V14.01,2013-09-12 03:44:00,
2013-09-11 23:49:00,68.6,32.4,29.95,WSW,257,0.0,1.0,26,0.00,,CLR,0.01,VWS V14.01,2013-09-12 03:49:00,
2013-09-11 23:54:00,68.5,32.3,29.95,WSW,256,1.0,3.0,26,0.00,,CLR,0.01,VWS V14.01,2013-09-12 03:54:00,
2013-09-11 23:59:00,68.3,32.1,29.95,WSW,256,3.0,3.0,26,0.00,,CLR,0.01,VWS V14.01,2013-09-12 03:59:00,